(27438) Carolynjons = 1993 TX40 = 2000 FM38

Discovered at Socorro on 2000-03-29 by LINEAR.
(27438) Carolynjons = 2000 FM38

Carolyn Kay Jons (b. 1998) is a finalist in the 2011 Broadcom MASTERS, a math and science competition for middle-school students, for her physical sciences project. She attends the Central Middle School, Eden Prairie, Minnesota. [Ref: Minor Planet Circ. 77504]

Orbit

Orbit type: Main Belt

Note: WebGL enabled browser required.

epoch2023-09-13.0
epoch JD2460200.5
perihelion date2022-01-29.89290
perihelion JD2459609.39290
argument of perihelion (°)46.51102
ascending node (°)127.54917
inclination (°)2.80845
eccentricity0.1018275
perihelion distance (AU)2.4136347
Tisserand w.r.t. Jupiter3.4
ΔV w.r.t. Earth (km/sec)9.8
semimajor axis (AU)2.6872728
mean anomaly (°)132.25204
mean daily motion (°/day)0.22373620
aphelion distance (AU)2.961
period (years)4.41
P-vector [x]-0.99394029
P-vector [y]0.08129149
P-vector [z]0.07398909
Q-vector [x]-0.10282824
Q-vector [y]-0.92550733
Q-vector [z]-0.36450315
absolute magnitude14.78
phase slope0.15
uncertainty0
referenceMPEC 2024-C06
observations used1883
oppositions23
arc length (days)11932
first opposition used1991
last opposition used2023
residual rms (arc-secs)0.67
perturbers coarse indicatorM-v
perturbers precise indicator003Ek
first observation date used1991-03-12.0
last observation date used2023-11-11.0
computer nameMPCLINUX
JD of orbit computation2456847.799997
perihelion JD uncertainty (days)7.4144E-05
argument of perihelion uncertainty (°)8.6722E-05
ascending node uncertainty (°)8.5216E-05
inclination uncertainty (°)3.8635E-06
eccentricity uncertainty 4.2325E-08
perihelion distance uncertainty (AU)1.1411E-07
Minimum Orbit Intersection Distances (in AU)
for orbit epoch: 2460200.5, reference: E2024-A48
Mercury2.01257
Venus1.69415
Earth1.41838
Mars0.75235
Jupiter1.99927
Saturn6.32712
Uranus16.0288
Neptune26.91

Observations

1920 total observations over interval: 1991 03 12.35746 – 2023 11 11.094988
These data are available for download (format description).

Date (UT) J2000 RA J2000 Dec Magn Location Ref
1991 03 12.35746 11 34 37.46 +06 19 36.2 20.0 V 691 – Steward Observatory, Kitt Peak-Spacewatch MPS 79058
1991 03 12.38071 11 34 36.33 +06 19 43.5 18.4 V 691 – Steward Observatory, Kitt Peak-Spacewatch MPS 79058
1991 03 12.41013 11 34 34.82 +06 19 55.0 18.4 V 691 – Steward Observatory, Kitt Peak-Spacewatch MPS 79058
1993 10 09.14861 01 11 28.54 +03 16 36.6 18.5   809 – European Southern Observatory, La Silla MPC 25303
1993 10 09.16181 01 11 27.94 +03 16 30.9   809 – European Southern Observatory, La Silla MPC 25303
1993 10 09.17500 01 11 27.12 +03 16 27.4   809 – European Southern Observatory, La Silla MPC 25303
1993 10 11.11319 01 09 50.67 +03 05 57.5   809 – European Southern Observatory, La Silla MPC 25303
1993 10 11.12639 01 09 49.93 +03 05 51.9   809 – European Southern Observatory, La Silla MPC 25303
1993 10 11.13958 01 09 49.21 +03 05 47.6   809 – European Southern Observatory, La Silla MPC 25303
1993 10 20.15625 01 02 23.55 +02 18 58.9 18.5   809 – European Southern Observatory, La Silla MPC 25303
1993 10 20.16944 01 02 22.86 +02 18 55.3   809 – European Southern Observatory, La Silla MPC 25303
1993 10 20.18264 01 02 22.15 +02 18 51.2   809 – European Southern Observatory, La Silla MPC 25303
1995 02 02.17648 07 42 15.08 +20 49 43.5 17.7 V 691 – Steward Observatory, Kitt Peak-Spacewatch MPS 17659
1995 02 02.19939 07 42 13.97 +20 49 47.8   691 – Steward Observatory, Kitt Peak-Spacewatch MPS 17659
1995 02 02.22209 07 42 12.68 +20 49 53.0   691 – Steward Observatory, Kitt Peak-Spacewatch MPS 17659
1998 11 13.11086 04 57 57.83 +18 55 34.9 19.1 V 910 – Caussols-ODAS MPS 17659
1998 11 13.13632 04 57 56.63 +18 55 33.0 19.2 V 910 – Caussols-ODAS MPS 17659
1998 11 13.16014 04 57 55.57 +18 55 30.3 19.4 V 910 – Caussols-ODAS MPS 17659
2000 03 01.38602 13 28 21.19 -05 18 30.9 18.4 R 703 – Catalina Sky Survey MPS 12634
2000 03 01.40204 13 28 21.02 -05 18 25.4 18.6 R 703 – Catalina Sky Survey MPS 12634
2000 03 01.41807 13 28 20.75 -05 18 23.6 18.4 R 703 – Catalina Sky Survey MPS 12634
2000 03 01.43394 13 28 20.55 -05 18 20.4 18.2 R 703 – Catalina Sky Survey MPS 12634
2000 03 06.55522 13 26 58.70 -05 00 26.3 17.8   608 – Haleakala-AMOS MPS 12634
2000 03 06.56591 13 26 58.45 -05 00 24.1 17.7   608 – Haleakala-AMOS MPS 12634
2000 03 06.57465 13 26 58.26 -05 00 22.1 17.7   608 – Haleakala-AMOS MPS 12634
2000 03 29.31084 13 13 32.69 -03 05 01.0 17.6   704 – Lincoln Laboratory ETS, New Mexico MPS 12634
2000 03 29.33264 13 13 31.64 -03 04 53.8 18.2   704 – Lincoln Laboratory ETS, New Mexico MPS 12634
2000 03 29.34822 13 13 30.87 -03 04 47.8 18.4   704 – Lincoln Laboratory ETS, New Mexico MPS 12634
2000 03 29.36284 13 13 30.13 -03 04 42.5 18.6   704 – Lincoln Laboratory ETS, New Mexico MPS 12634
2000 03 29.37836 13 13 29.42 -03 04 37.3 18.2   704 – Lincoln Laboratory ETS, New Mexico MPS 12634
2000 04 02.33440 13 10 19.83 -02 41 42.0 17.4 R 699 – Lowell Observatory-LONEOS MPS 12634
2000 04 02.35815 13 10 18.60 -02 41 33.6   699 – Lowell Observatory-LONEOS MPS 12634
2000 04 02.38187 13 10 17.41 -02 41 25.6   699 – Lowell Observatory-LONEOS MPS 12634
2000 04 02.40565 13 10 16.20 -02 41 17.3   699 – Lowell Observatory-LONEOS MPS 12634
2000 04 03.30624 13 09 32.38 -02 36 05.6 17.2 R 699 – Lowell Observatory-LONEOS MPS 12634
2000 04 03.33016 13 09 31.14 -02 35 57.2   699 – Lowell Observatory-LONEOS MPS 12634
2000 04 03.35409 13 09 29.91 -02 35 49.1   699 – Lowell Observatory-LONEOS MPS 12634
2000 04 03.37798 13 09 28.69 -02 35 40.9   699 – Lowell Observatory-LONEOS MPS 12634
2000 04 04.31972 13 08 42.52 -02 30 16.2 18.0   704 – Lincoln Laboratory ETS, New Mexico MPS 12634
2000 04 04.33403 13 08 41.80 -02 30 11.2 18.5   704 – Lincoln Laboratory ETS, New Mexico MPS 12634
2000 04 04.34834 13 08 41.04 -02 30 06.4 18.0   704 – Lincoln Laboratory ETS, New Mexico MPS 12634
2000 04 04.36265 13 08 40.31 -02 30 01.7 18.2   704 – Lincoln Laboratory ETS, New Mexico MPS 12634
2000 04 04.37695 13 08 39.58 -02 29 57.4 18.3   704 – Lincoln Laboratory ETS, New Mexico MPS 12634
2000 04 05.27300 13 07 55.58 -02 24 50.1 17.1 R 699 – Lowell Observatory-LONEOS MPS 15718
2000 04 05.28885 13 07 54.77 -02 24 44.7   699 – Lowell Observatory-LONEOS MPS 15718
2000 04 05.30482 13 07 53.94 -02 24 39.2   699 – Lowell Observatory-LONEOS MPS 15718
2000 04 05.32070 13 07 53.12 -02 24 33.7   699 – Lowell Observatory-LONEOS MPS 15718
2000 04 06.27136 13 07 06.20 -02 19 10.4 17.3 R 699 – Lowell Observatory-LONEOS MPS 12634
2000 04 06.29033 13 07 05.24 -02 19 04.0   699 – Lowell Observatory-LONEOS MPS 12634
2000 04 06.30924 13 07 04.24 -02 18 57.9   699 – Lowell Observatory-LONEOS MPS 12634
2000 04 06.32823 13 07 03.30 -02 18 51.0   699 – Lowell Observatory-LONEOS MPS 12634
2000 04 08.27070 13 05 27.39 -02 07 59.6 17.7   704 – Lincoln Laboratory ETS, New Mexico MPS 12634
2000 04 08.28496 13 05 26.65 -02 07 54.3 17.6   704 – Lincoln Laboratory ETS, New Mexico MPS 12634
2000 04 08.29899 13 05 25.93 -02 07 49.8 17.9   704 – Lincoln Laboratory ETS, New Mexico MPS 12634
2000 04 08.31311 13 05 25.18 -02 07 44.7 17.8   704 – Lincoln Laboratory ETS, New Mexico MPS 12634
2000 04 08.32687 13 05 24.49 -02 07 40.5 18.0   704 – Lincoln Laboratory ETS, New Mexico MPS 12634
2000 04 10.28728 13 03 48.12 -01 56 58.6 18.1   704 – Lincoln Laboratory ETS, New Mexico MPS 12634
2000 04 10.30260 13 03 47.29 -01 56 54.4 18.1   704 – Lincoln Laboratory ETS, New Mexico MPS 12634
2000 04 10.31702 13 03 46.57 -01 56 49.7 18.2   704 – Lincoln Laboratory ETS, New Mexico MPS 12634
2000 04 10.33142 13 03 45.83 -01 56 45.0 18.0   704 – Lincoln Laboratory ETS, New Mexico MPS 12634
2000 04 10.34578 13 03 45.12 -01 56 41.0 18.3   704 – Lincoln Laboratory ETS, New Mexico MPS 12634
2000 04 27.14683 12 51 27.07 -00 42 28.6 17.2   704 – Lincoln Laboratory ETS, New Mexico MPS 14233
2000 04 27.15940 12 51 26.56 -00 42 25.9 17.4   704 – Lincoln Laboratory ETS, New Mexico MPS 14233
2000 04 27.18477 12 51 25.58 -00 42 20.9 17.7   704 – Lincoln Laboratory ETS, New Mexico MPS 14233
2000 04 27.20631 12 51 24.79 -00 42 16.4 17.6   704 – Lincoln Laboratory ETS, New Mexico MPS 14233
2000 04 27.23096 12 51 23.84 -00 42 11.6 17.7   704 – Lincoln Laboratory ETS, New Mexico MPS 14233
2000 05 05.21405 12 47 14.74 -00 22 09.9 18.9   704 – Lincoln Laboratory ETS, New Mexico MPS 14233
2000 05 05.25326 12 47 13.63 -00 22 05.9 18.9   704 – Lincoln Laboratory ETS, New Mexico MPS 14233
2000 05 05.26667 12 47 13.19 -00 22 04.2 19.3   704 – Lincoln Laboratory ETS, New Mexico MPS 14233
2000 05 11.15760 12 45 07.57 -00 14 47.9 18.3 R 699 – Lowell Observatory-LONEOS MPS 14233
2000 05 11.17413 12 45 07.29 -00 14 47.6   699 – Lowell Observatory-LONEOS MPS 14233
2000 05 11.19072 12 45 06.94 -00 14 46.5   699 – Lowell Observatory-LONEOS MPS 14233
2000 05 11.20730 12 45 06.67 -00 14 45.7   699 – Lowell Observatory-LONEOS MPS 14233
2001 06 16.38270 21 12 49.10 -15 33 34.2 18.5 R 699 – Lowell Observatory-LONEOS MPS 31686
2001 06 16.40148 21 12 49.03 -15 33 37.2   699 – Lowell Observatory-LONEOS MPS 31686
2001 06 16.42027 21 12 48.81 -15 33 37.5   699 – Lowell Observatory-LONEOS MPS 31686
2001 06 16.43910 21 12 48.55 -15 33 38.2   699 – Lowell Observatory-LONEOS MPS 31686
2001 07 19.50062 20 55 50.46 -17 13 16.1 19.9   608 – Haleakala-AMOS MPS 32299
2001 07 19.51131 20 55 49.91 -17 13 17.8 20.3   608 – Haleakala-AMOS MPS 32299
2001 07 19.52176 20 55 49.36 -17 13 21.4 19.4   608 – Haleakala-AMOS MPS 32299
2001 07 27.32528 20 49 11.93 -17 47 18.6 18.1 R 699 – Lowell Observatory-LONEOS MPS 32299
2001 07 27.35028 20 49 10.62 -17 47 24.9   699 – Lowell Observatory-LONEOS MPS 32299
2001 07 27.37534 20 49 09.23 -17 47 31.7   699 – Lowell Observatory-LONEOS MPS 32299
2001 07 27.40047 20 49 07.85 -17 47 38.1   699 – Lowell Observatory-LONEOS MPS 32299
2001 08 07.33803 20 39 31.22 -18 34 45.4 20.0   608 – Haleakala-AMOS MPS 33078
